• In Hungary
  • List of Countries
  • For 7 days
  • Water Temperature
  • Satellite Maps
  • Weather Map
  • News
  • Weather Widgets
  • user-avatar
    Login

    Hourly Weather Madurai

    Today, 20 January, Saturday

    Time Temperature Precipitation Wind Pressure Humidity
    00:00 +22°C° 0 mm 3 mps 747 mmHg 73%
    01:00 +21°C° 0 mm 2 mps 747 mmHg 75%
    02:00 +21°C° 0 mm 2 mps 747 mmHg 77%
    03:00 +20°C° 0 mm 2 mps 747 mmHg 78%
    04:00 +20°C° 0 mm 2 mps 747 mmHg 80%
    05:00 +20°C° 0 mm 2 mps 747 mmHg 80%
    06:00 +21°C° 0 mm 3 mps 747 mmHg 76%
    07:00 +22°C° 0 mm 3 mps 747 mmHg 72%
    08:00 +23°C° 0 mm 4 mps 748 mmHg 68%
    09:00 +26°C° 0 mm 4 mps 748 mmHg 60%
    10:00 +28°C° 0 mm 4 mps 748 mmHg 52%
    11:00 +29°C° 0 mm 4 mps 748 mmHg 44%
    12:00 +30°C° 0 mm 4 mps 747 mmHg 40%
    13:00 +32°C° 0 mm 4 mps 746 mmHg 37%
    14:00 +33°C° 0 mm 4 mps 745 mmHg 33%
    15:00 +33°C° 0 mm 4 mps 745 mmHg 35%
    16:00 +32°C° 0 mm 4 mps 745 mmHg 37%
    17:00 +31°C° 0 mm 3 mps 745 mmHg 39%
    18:00 +29°C° 0 mm 4 mps 745 mmHg 46%
    19:00 +27°C° 0 mm 4 mps 746 mmHg 52%
    20:00 +26°C° 0 mm 4 mps 746 mmHg 58%
    21:00 +25°C° 0 mm 3 mps 746 mmHg 62%
    22:00 +24°C° 0 mm 3 mps 746 mmHg 66%
    23:00 +22°C° 0 mm 3 mps 746 mmHg 71%

    Tomorrow, 21 January, Sunday

    Time Temperature Precipitation Wind Pressure Humidity
    00:00 +23°C° 0 mm 2 mps 746 mmHg 73%
    01:00 +21°C° 0 mm 2 mps 746 mmHg 75%
    02:00 +21°C° 0 mm 2 mps 746 mmHg 78%
    03:00 +20°C° 0 mm 2 mps 746 mmHg 79%
    04:00 +20°C° 0 mm 2 mps 746 mmHg 80%
    05:00 +20°C° 0 mm 2 mps 745 mmHg 82%
    06:00 +21°C° 0 mm 2 mps 746 mmHg 78%
    07:00 +22°C° 0 mm 3 mps 747 mmHg 74%
    08:00 +24°C° 0 mm 3 mps 747 mmHg 70%
    09:00 +26°C° 0 mm 3 mps 747 mmHg 61%
    10:00 +28°C° 0 mm 4 mps 747 mmHg 53%
    11:00 +29°C° 0 mm 4 mps 747 mmHg 45%
    12:00 +30°C° 0 mm 4 mps 746 mmHg 41%
    13:00 +32°C° 0 mm 4 mps 745 mmHg 37%
    14:00 +33°C° 0 mm 4 mps 745 mmHg 33%
    15:00 +32°C° 0 mm 4 mps 745 mmHg 35%
    16:00 +32°C° 0 mm 4 mps 744 mmHg 38%
    17:00 +30°C° 0 mm 4 mps 744 mmHg 40%
    18:00 +29°C° 0 mm 4 mps 745 mmHg 46%
    19:00 +27°C° 0 mm 4 mps 746 mmHg 52%
    20:00 +25°C° 0 mm 3 mps 746 mmHg 59%
    21:00 +25°C° 0 mm 3 mps 746 mmHg 62%
    22:00 +24°C° 0 mm 3 mps 746 mmHg 66%
    23:00 +22°C° 0 mm 3 mps 746 mmHg 69%

    Day after tomorrow, 22 January, Monday

    Time Temperature Precipitation Wind Pressure Humidity
    00:00 +23°C° 0 mm 2 mps 746 mmHg 71%
    01:00 +21°C° 0 mm 2 mps 746 mmHg 72%
    02:00 +21°C° 0 mm 2 mps 745 mmHg 74%
    03:00 +20°C° 0 mm 2 mps 745 mmHg 76%
    04:00 +20°C° 0 mm 2 mps 745 mmHg 78%
    05:00 +20°C° 0 mm 2 mps 745 mmHg 80%
    06:00 +21°C° 0 mm 2 mps 746 mmHg 76%
    07:00 +23°C° 0 mm 2 mps 746 mmHg 72%
    08:00 +24°C° 0 mm 3 mps 747 mmHg 68%
    09:00 +26°C° 0 mm 3 mps 747 mmHg 59%
    10:00 +28°C° 0 mm 3 mps 746 mmHg 50%
    11:00 +30°C° 0 mm 4 mps 746 mmHg 41%
    12:00 +31°C° 0 mm 3 mps 745 mmHg 37%
    13:00 +33°C° 0 mm 3 mps 744 mmHg 33%
    14:00 +34°C° 0 mm 3 mps 743 mmHg 29%
    15:00 +33°C° 0 mm 3 mps 743 mmHg 31%
    16:00 +33°C° 0 mm 3 mps 743 mmHg 32%
    17:00 +31°C° 0 mm 3 mps 743 mmHg 34%
    18:00 +30°C° 0 mm 3 mps 744 mmHg 41%
    19:00 +28°C° 0 mm 3 mps 745 mmHg 47%
    20:00 +26°C° 0 mm 3 mps 746 mmHg 54%
    21:00 +25°C° 0 mm 3 mps 746 mmHg 58%
    22:00 +24°C° 0 mm 2 mps 746 mmHg 63%
    23:00 +24°C° 0 mm 2 mps 746 mmHg 68%

    23 January, Tuesday

    Time Temperature Precipitation Wind Pressure Humidity
    00:00 +23°C° 0 mm 2 mps 746 mmHg 70%
    01:00 +23°C° 0 mm 2 mps 745 mmHg 72%
    02:00 +22°C° 0 mm 1 mps 745 mmHg 74%
    03:00 +22°C° 0 mm 1 mps 745 mmHg 75%
    04:00 +21°C° 0 mm 2 mps 745 mmHg 76%
    05:00 +21°C° 0 mm 2 mps 745 mmHg 77%
    06:00 +23°C° 0 mm 2 mps 746 mmHg 74%
    07:00 +24°C° 0 mm 2 mps 746 mmHg 70%
    08:00 +25°C° 0 mm 2 mps 747 mmHg 67%
    09:00 +26°C° 0 mm 3 mps 747 mmHg 59%
    10:00 +28°C° 0 mm 3 mps 747 mmHg 52%
    11:00 +30°C° 0 mm 3 mps 746 mmHg 44%
    12:00 +31°C° 0 mm 3 mps 745 mmHg 41%
    13:00 +32°C° 0 mm 2 mps 744 mmHg 37%
    14:00 +34°C° 0 mm 2 mps 743 mmHg 33%
    15:00 +34°C° 0 mm 2 mps 743 mmHg 34%
    16:00 +34°C° 0 mm 2 mps 743 mmHg 35%
    17:00 +34°C° 0 mm 2 mps 743 mmHg 35%
    18:00 +31°C° 0 mm 2 mps 744 mmHg 41%
    19:00 +29°C° 0 mm 2 mps 745 mmHg 47%
    20:00 +27°C° 0 mm 2 mps 745 mmHg 52%
    21:00 +27°C° 0 mm 2 mps 745 mmHg 59%
    22:00 +26°C° 0 mm 2 mps 746 mmHg 65%
    23:00 +25°C° 0 mm 1 mps 746 mmHg 72%

    24 January, Wednesday

    Time Temperature Precipitation Wind Pressure Humidity
    00:00 +25°C° 0 mm 1 mps 745 mmHg 75%
    01:00 +24°C° 0 mm 1 mps 745 mmHg 78%
    02:00 +24°C° 0 mm 1 mps 744 mmHg 81%
    03:00 +24°C° 0 mm 1 mps 744 mmHg 82%
    04:00 +23°C° 0 mm 1 mps 744 mmHg 82%
    05:00 +23°C° 0 mm 1 mps 744 mmHg 83%
    06:00 +24°C° 0 mm 1 mps 745 mmHg 78%
    07:00 +25°C° 0 mm 2 mps 745 mmHg 73%
    08:00 +26°C° 0 mm 2 mps 746 mmHg 69%
    09:00 +28°C° 0 mm 2 mps 746 mmHg 62%
    10:00 +29°C° 0 mm 2 mps 746 mmHg 55%
    11:00 +31°C° 0 mm 2 mps 746 mmHg 48%
    12:00 +32°C° 0 mm 1 mps 745 mmHg 44%
    13:00 +33°C° 0 mm 1 mps 744 mmHg 40%
    14:00 +34°C° 0 mm 1 mps 743 mmHg 36%
    15:00 +34°C° 0 mm 1 mps 743 mmHg 37%
    16:00 +34°C° 0 mm 1 mps 743 mmHg 37%
    17:00 +35°C° 0 mm 2 mps 743 mmHg 37%
    18:00 +32°C° 0 mm 2 mps 743 mmHg 43%
    19:00 +30°C° 0 mm 2 mps 744 mmHg 49%
    20:00 +29°C° 0 mm 3 mps 744 mmHg 55%
    21:00 +28°C° 0 mm 2 mps 744 mmHg 61%
    22:00 +27°C° 0 mm 2 mps 744 mmHg 67%
    23:00 +26°C° 0 mm 1 mps 745 mmHg 73%

    25 January, Thursday

    Time Temperature Precipitation Wind Pressure Humidity
    00:00 +26°C° 0 mm 1 mps 744 mmHg 76%
    01:00 +25°C° 0 mm 1 mps 744 mmHg 78%
    02:00 +25°C° 0 mm 1 mps 743 mmHg 81%
    03:00 +24°C° 0 mm 1 mps 744 mmHg 82%
    04:00 +24°C° 0 mm 1 mps 744 mmHg 83%
    05:00 +24°C° 0 mm 1 mps 744 mmHg 84%
    06:00 +25°C° 0 mm 1 mps 744 mmHg 79%
    07:00 +25°C° 0 mm 1 mps 745 mmHg 73%
    08:00 +26°C° 0 mm 1 mps 746 mmHg 68%
    09:00 +28°C° 0 mm 2 mps 745 mmHg 57%
    10:00 +30°C° 0 mm 3 mps 745 mmHg 47%
    11:00 +33°C° 0 mm 3 mps 745 mmHg 36%
    12:00 +34°C° 0 mm 3 mps 744 mmHg 33%
    13:00 +35°C° 0 mm 4 mps 743 mmHg 30%
    14:00 +36°C° 0 mm 4 mps 742 mmHg 27%
    15:00 +35°C° 0 mm 4 mps 742 mmHg 28%
    16:00 +35°C° 0 mm 4 mps 742 mmHg 30%
    17:00 +34°C° 0 mm 3 mps 742 mmHg 31%
    18:00 +31°C° 0 mm 3 mps 743 mmHg 36%
    19:00 +30°C° 0 mm 3 mps 743 mmHg 41%
    20:00 +28°C° 0 mm 4 mps 744 mmHg 47%
    21:00 +27°C° 0 mm 3 mps 744 mmHg 50%
    22:00 +26°C° 0 mm 2 mps 744 mmHg 54%
    23:00 +25°C° 0 mm 2 mps 744 mmHg 58%
    Show more